Flag for Canada Weather past 2 weeks in Hopedale, Newfoundland and Labrador, Canada

Now
31 °F

Chilly.


Feels Like: 20 °F
Forecast: 30 / 35 °F
Wind: 15 mph from North

Location: Hopedale

Current Time: Apr 28, 2015 at 1:29:36 AM

Latest Report: Apr 28, 2015 at 12:00 AM


Visibility: N/A

Pressure: 30.34 "Hg

Humidity: 87%

Dew point: 27 °F

Location of HopedaleLocation

Historic Weather in Hopedale — Graph

°F

Hopedale temperature yesterday

Maximum temperature yesterday: 33 °F (at 1:00 PM)
Minimum temperature yesterday: 31 °F (at 10:00 PM)
Average temperature yesterday: 32 °F

Past Weeks' High & Low Weather Summary

 TemperatureHumidityPressure
High45 °F (Apr 13, 6:00 PM)100% (Apr 23, 8:00 AM)30.40 "Hg (Apr 23, 8:00 AM)
Low9 °F (Apr 16, 6:00 AM)42% (Apr 21, 2:00 PM)29.01 "Hg (Apr 14, 3:00 PM)
Average28 °F76%30.00 "Hg
* Reported Apr 13 1:00 AM — Midnight between Apr 27 and Apr 28, Hopedale, Weather by CustomWeather, © 2015

Note: Actual official high and low records may vary slightly from our data, if they occured in-between our weather recording intervals... More about our weather records

Advertising

Hopedale weather history for previous 24 hours

 ConditionsComfort  
Time TempWeatherWind HumidityBarometerVisibility
12:00 AM
Tue, Apr 28
31 °FChilly.15 mph87%30.34 "HgN/A
11:00 PM
Mon, Apr 27
31 °FChilly.15 mph88%30.34 "HgN/A
10:00 PM31 °FChilly.12 mph89%30.35 "HgN/A
9:00 PM33 °FChilly.14 mph82%30.36 "HgN/A
8:00 PM31 °FChilly.15 mph88%30.35 "HgN/A
7:00 PM32 °FChilly.14 mph87%30.35 "HgN/A
6:00 PM32 °FChilly.15 mph87%30.36 "HgN/A
5:00 PM32 °FChilly.14 mph87%30.36 "HgN/A
4:00 PM32 °FChilly.15 mph89%30.36 "HgN/A
3:00 PM31 °FChilly.15 mph88%30.36 "HgN/A
2:00 PM33 °FChilly.14 mph84%30.37 "HgN/A
1:00 PM33 °FChilly.16 mph81%30.37 "HgN/A
12:00 PM33 °FChilly.17 mph81%30.36 "HgN/A
11:00 AM32 °FChilly.18 mph83%30.36 "HgN/A
10:00 AM31 °FChilly.20 mph87%30.36 "HgN/A
9:00 AM31 °FChilly.20 mph87%30.36 "HgN/A
8:00 AM31 °FChilly.17 mph90%30.35 "HgN/A
7:00 AM31 °FChilly.21 mph90%30.34 "HgN/A
6:00 AM32 °FChilly.21 mph93%30.33 "HgN/A
5:00 AM32 °FChilly.18 mph93%30.32 "HgN/A
4:00 AM32 °FChilly.17 mph99%30.32 "HgN/A
3:00 AM32 °FChilly.17 mph100%30.31 "HgN/A
2:00 AM32 °FChilly.16 mph100%30.31 "HgN/A
1:00 AM31 °FChilly.16 mph100%30.32 "HgN/A
Weather by CustomWeather, © 2015

See weather overviewHow to use our weather pages